SCP
-0 0 0 0 0 0 0 0 -0 0 0 -0 -0 -0 0 -0 -0 0 0 -0 0 -0 -0 -0 -0 -0 -0 -0 -0 -0 -0 -0 -0 -0 -0 -0 -0 -0 -0 -0 -0 -0 -0 -0 -0 0 0 0 0
-0 -0 -0 -0 0 0 0 0 0 0 -0 -0 -0 0 0 0 -0 -0 -0 -0 0 -0 -0 -0 -0 -0 -0 -0 -0 -0 -0 -0 -0 0 -0 -0 -0 -0 -0 -0 -0 -0 -0 -0 -0 -0 0 0 0
0 -0 0 0 -0 0 0 0 0 0 -0 -0 0 -0 -0 0 -0 0 -0 0 0 -0 -0 -0 -0 -0 -0 -0 -0 -0 -0 -0 -0 -0 -0 -0 -0 -0 0 0 0 0 0 -0 -0 -0 -0 -0 0
0 -0 0 0 0 0 0 0 0 0 0 -0 -0 -0 -0 -0 0 -0 0 0 -0 -0 -0 -0 -0 -0 -0 -0 -0 -0 -0 -0 -0 -0 -0 -0 -0 -0 0 0 0 0 0 0 0 0 0 0 0
0 -0 0 -0 0 -0 0 0 0 0 0 0 0 0 0 -0 -0 -0 -0 0 -0 -0 -0 -0 0 -0 -0 -0 -0 -0 -0 0 0 0 -0 -0 -0 -0 -0 0 0 0 0 0 0 0 0 0 0
0 -0 0 -0 -0 0 0 0 0 0 0 0 0 0 0 0 -0 -0 0 -0 0 -0 -0 -0 0 0 0 -0 -0 -0 -0 0 0 0 -0 0 0 0 0 0 0 0 0 0 0 0 0 0 0
0 -0 -0 0 0 0 0 0 0 0 0 0 0 0 0 0 0 0 0 0 0 0 0 0 -0 0 -0 0 0 0 0 0 0 0 0 0 0 0 0 0 0 0 0 0 0 0 0 0 0
0 0 0 0 0 0 0 0 0 0 0 0 0 0 0 0 0 0 0 0 0 0 0 0 0 0 0 0 0 0 0 0 0 0 0 0 0 0 0 0 0 0 0 0 0 0 0 0 0
0 0 0 0 0 0 0 0 0 0 0 0 0 0 0 0 0 0 0 0 0 0 0 0 0 0 0 0 0 0 0 0 0 0 0 0 0 0 0 0 0 0 0 0 0 0 0 0 0
0 0 0 0 0 0 0 0 0 0 0 0 0 0 0 0 0 0 0 0 0 0 0 0 0 0 0 0 0 0 0 0 0 0 0 0 0 0 0 0 0 0 0 0 0 0 0 0 0
0 0 0 0 0 0 0 0 0 0 0 0 0 0 0 0 0 0 0 0 0 0 0 0 0 0 0 0 0 0 0 0 0 0 0 0 0 0 0 0 0 0 0 0 0 0 0 0 0
0 0 0 0 0 0 0 0 0 0 0 0 0 0 0 0 0 0 0 0 0 0 0 0 0 0 0 0 0 0 0 0 0 0 0 0 0 0 0 0 0 0 0 0 0 0 0 0 0
0 0 0 0 0 0 0 0 0 0 0 0 0 0 0 0 0 0 0 0 0 0 0 0 0 0 0 0 0 0 0 0 0 0 0 0 0 0 0 0 0 0 0 0 0 0 0 0 0
0 0 0 0 0 0 0 0 0 0 0 0 0 0 0 0 0 0 0 0 0 0 0 0 0 0 0 0 0 0 0 0 0 0 0 0 0 0 0 0 0 0 0 0 0 0 0 0 0
0 0 0 0 0 0 0 0 0 0 0 0 0 0 0 0 0 0 0 0 0 0 0 0 0 0 0 0 0 0 0 0 0 0 0 0 0 0 0 0 0 0 0 0 0 0 0 -0 0
0 0 0 0 0 0 0 0 0 0 0 0 0 0 0 0 0 0 0 0 0 0 0 0 0 0 0 0 0 0 0 0 0 0 0 0 0 0 0 0 0 0 0 0 0 0 0 0 0
0 0 0 0 0 0 0 0 0 0 0 0 0 0 0 0 0 0 0 0 0 0 0 0 0 0 0 0 0 0 0 0 0 0 0 0 0 0 0 0 0 0 0 0 0 0 0 0 0
0 0 0 0 0 0 0 0 0 0 0 0 0 0 0 0 0 0 0 0 0 0 0 0 0 0 0 0 0 0 0 0 0 0 0 0 0 0 0 0 0 0 0 0 0 0 0 0 0
0 0 0 0 0 0 0 0 0 0 0 0 0 0 0 0 0 0 0 0 0 0 0 0 0 0 0 0 0 0 0 0 0 0 0 0 0 0 0 0 0 0 0 0 0 0 0 0 0
0 0 0 0 0 0 0 0 0 0 0 0 0 0 0 0 0 0 0 0 0 0 0 0 0 0 0 0 0 0 0 0 0 0 0 0 0 0 0 0 0 0 0 0 0 0 0 0 0
0 0 0 0 0 0 0 0 0 0 0 0 0 0 0 0 0 0 0 0 0 0 0 0 0 0 0 0 0 0 0 0 0 0 0 0 0 0 0 0 0 0 0 0 0 0 0 0 0
0 0 0 0 0 0 0 0 0 0 0 0 0 0 0 0 0 0 0 0 0 0 0 0 0 0 0 0 0 0 0 0 0 0 0 0 0 0 0 0 0 0 0 0 0 0 0 0 0
0 0 0 0 0 0 0 0 0 0 0 0 0 0 0 0 0 0 0 0 0 0 0 0 0 0 0 0 0 0 0 0 0 0 0 0 0 0 0 0 0 0 0 0 0 0 0 0 0
0 0 0 0 0 0 0 0 0 0 0 0 0 0 0 0 0 0 0 0 0 0 0 0 0 0 0 0 0 0 0 0 0 0 0 0 0 0 0 0 0 0 0 0 0 0 0 0 0
0 0 0 0 0 0 0 0 0 0 0 0 0 0 0 0 0 0 0 0 0 0 0 0 0 0 0 0 0 0 0 0 0 0 0 0 0 0 0 0 0 0 0 0 0 0 0 0 0
0 0 0 0 0 0 0 0 0 0 0 0 0 0 0 0 0 0 0 0 0 0 0 0 0 0 0 0 0 0 0 0 0 0 0 0 0 0 0 0 0 0 0 0 0 0 0 0 0
0 0 0 0 0 0 0 0 0 0 0 0 0 0 0 0 0 0 0 0 0 0 0 0 0 0 0 0 0 0 0 0 0 0 0 0 0 0 0 0 0 0 0 0 0 0 0 0 0
0 0 0 0 0 0 0 0 0 0 0 0 0 0 0 0 0 0 0 0 0 0 0 0 0 0 0 0 0 0 0 0 0 0 0 0 0 0 0 0 0 0 0 0 0 0 0 0 0
0 0 0 0 0 0 0 0 0 0 0 0 0 0 0 0 0 0 0 0 0 0 0 0 0 0 0 0 0 0 0 0 0 0 0 0 0 0 0 0 0 0 0 0 0 0 0 0 0
0 0 0 0 0 0 0 0 0 0 0 0 0 0 0 0 0 0 0 0 0 0 0 0 0 0 0 0 0 0 0 0 0 0 0 0 0 0 0 0 0 0 0 0 0 0 0 0 0
Wind_Speed_500mb
6 4 3 2 9 8 8 9 3 5 4 12 7 11 15 20 19 9 4 4 6 22 30 31 25 20 22 19 18 17 16 13 10 10 14 15 7 10 17 20 16 11 9 10 12 12 12 11 10
5 6 2 5 9 10 11 9 6 11 9 6 2 2 1 21 20 15 6 2 8 22 28 28 29 24 22 20 19 16 13 9 8 11 11 9 7 14 19 20 17 12 9 9 11 12 11 9 8
5 4 6 6 6 7 9 7 9 8 5 3 2 5 7 15 20 9 5 4 12 21 26 28 26 29 23 21 19 18 15 11 11 11 8 6 7 13 17 20 15 12 9 10 10 11 10 9 7
4 3 7 12 4 6 8 9 5 9 5 2 2 13 13 15 6 7 6 8 14 16 22 26 24 24 21 19 17 18 15 13 12 10 8 8 5 10 15 18 18 12 8 8 10 11 10 9 8
6 7 8 5 6 8 7 8 4 5 7 8 1 9 11 13 13 11 11 11 12 16 20 23 25 23 18 14 13 13 15 15 14 10 7 11 2 6 10 15 18 17 12 11 12 10 9 8 7
7 7 10 11 10 8 6 5 4 5 4 10 3 6 13 11 9 7 9 7 12 14 17 19 27 28 26 20 20 16 13 15 14 9 9 7 1 2 7 13 14 17 12 10 11 11 11 9 7
8 8 9 7 8 10 7 4 11 6 8 9 2 5 15 10 5 2 2 4 9 11 14 16 22 25 23 25 22 18 16 14 13 9 9 5 5 3 8 12 12 14 13 12 12 10 8 7 5
4 7 5 5 9 9 10 10 5 7 10 3 0 6 15 9 7 7 4 5 7 11 11 13 23 27 19 20 23 22 17 15 14 12 11 7 6 6 11 10 10 13 14 15 15 13 11 9 6
1 7 8 5 9 6 10 13 7 3 7 4 2 2 8 13 12 5 5 7 6 13 17 16 19 26 32 24 25 23 22 20 17 17 13 8 12 11 15 12 8 13 17 17 17 16 14 12 8
7 7 4 4 0 5 13 8 8 10 16 15 7 2 11 15 10 6 9 9 12 18 21 23 20 26 29 34 21 24 24 21 20 20 15 12 14 3 8 10 11 12 17 21 25 20 16 15 13
1 8 4 6 5 3 8 10 8 14 17 8 9 1 11 4 4 8 9 16 19 22 25 29 28 26 29 31 35 26 33 24 22 19 15 16 13 9 11 11 12 14 15 18 21 28 24 21 16
11 6 6 3 5 5 11 8 13 16 5 4 5 6 2 3 3 7 11 14 16 19 26 32 35 34 30 29 29 28 30 25 22 20 21 20 17 10 14 15 14 14 19 21 21 23 30 34 27
14 6 8 10 10 12 10 20 20 17 8 10 10 8 5 3 3 4 6 10 13 17 22 26 30 35 35 31 28 35 37 42 35 31 25 22 17 17 18 22 19 13 12 15 26 24 31 38 41
6 9 15 15 23 18 18 23 8 14 15 12 10 7 5 5 5 6 11 16 19 21 24 26 28 28 34 40 36 33 31 27 24 29 22 22 19 16 16 16 8 11 7 17 20 20 22 30 41
8 16 20 27 29 21 18 18 24 20 22 15 11 6 5 7 7 11 14 20 24 28 29 25 19 36 44 45 40 32 27 22 19 19 25 22 18 18 20 20 15 11 16 8 18 20 24 28 34
10 11 17 12 15 9 19 16 20 21 25 21 14 11 7 8 8 12 15 17 18 19 19 18 22 35 47 46 39 33 25 20 17 14 16 17 15 13 15 15 10 2 1 7 14 21 26 32 38
18 22 19 11 20 9 23 10 21 18 28 25 20 15 12 8 7 10 13 11 8 8 12 19 29 40 48 45 39 33 27 21 16 11 10 10 11 12 11 9 3 4 11 13 16 20 22 26 29
21 28 22 22 13 18 22 31 18 23 27 29 23 19 16 13 9 11 11 8 12 16 24 31 38 44 43 45 40 38 35 29 26 23 19 16 14 11 6 4 3 6 6 5 11 15 17 22 28
28 24 28 21 3 13 29 33 28 34 30 32 30 26 21 16 11 15 16 16 19 22 29 37 43 50 46 43 44 32 34 32 27 22 18 15 10 8 8 12 11 13 16 19 18 17 20 25 31
31 32 33 29 11 9 29 39 33 30 39 39 34 29 25 21 18 18 23 25 26 29 34 45 52 50 51 48 47 40 38 33 28 29 29 28 25 23 21 21 20 19 19 19 22 25 29 31 38
30 35 29 32 4 22 28 43 46 46 27 21 26 27 27 27 25 23 29 33 35 40 45 50 54 52 47 44 41 40 43 45 43 38 33 31 26 24 21 19 20 21 21 24 28 31 34 36 35
32 29 31 28 16 21 11 24 28 20 27 30 33 34 34 33 28 28 31 35 38 41 43 43 42 39 39 41 44 46 47 45 39 34 29 25 22 19 18 18 19 21 26 28 33 35 37 37 39
17 2 16 21 25 30 36 22 9 4 26 35 41 42 40 38 39 39 36 41 43 42 42 41 43 46 46 43 41 40 40 38 35 30 25 21 18 18 20 23 24 26 28 31 34 36 38 40 40
22 13 8 6 15 24 33 31 25 25 27 32 43 48 47 45 43 41 43 49 48 49 50 51 48 47 44 41 38 35 32 32 30 26 20 17 18 20 22 25 28 30 31 32 34 34 35 37 38
24 15 7 9 10 16 2 24 31 11 9 26 47 57 56 50 46 44 51 52 58 58 56 54 50 49 44 39 34 30 31 29 25 21 16 13 13 17 22 26 31 35 40 44 46 47 48 49 51
37 35 14 12 12 7 3 17 12 6 10 17 49 55 55 54 49 46 47 52 57 58 56 54 50 47 43 40 38 32 27 24 20 16 13 12 15 19 24 28 33 36 37 39 42 44 47 49 52
20 29 13 6 3 7 15 22 7 12 12 24 50 60 63 61 57 54 51 54 58 57 55 52 50 47 43 37 32 28 23 16 12 9 9 13 17 20 24 29 32 36 37 40 43 49 54 58 62
16 16 9 11 11 13 15 22 20 20 28 33 44 63 66 63 60 57 57 57 56 55 54 51 48 45 42 37 31 25 18 12 7 6 9 13 18 23 27 30 32 36 40 45 52 59 62 65 64
14 19 17 9 14 7 9 13 12 24 36 42 44 63 72 74 71 65 57 59 61 60 59 55 51 47 42 35 29 23 16 8 3 4 9 15 19 23 26 30 35 41 49 57 62 64 64 66 68
30 21 35 13 13 13 11 23 6 6 26 44 51 62 66 71 71 65 60 59 60 60 59 55 52 48 41 34 28 21 15 9 4 8 13 19 23 27 30 34 41 50 58 63 62 65 68 68 70
Wind_Direction_500mb
357 360 111 280 234 245 124 105 58 92 121 38 19 358 34 35 19 39 56 152 137 158 174 183 169 177 176 174 165 159 154 151 137 134 136 133 111 35 17 18 20 17 47 49 41 39 35 35 42
27 104 33 274 256 197 113 119 142 62 54 28 51 264 15 77 51 77 72 40 129 162 171 177 175 179 187 182 179 171 161 161 156 154 145 135 83 46 36 30 40 42 41 37 31 28 25 33 36
59 89 271 268 288 67 119 145 101 92 75 15 144 33 26 39 44 63 37 89 126 161 169 187 181 179 189 183 185 178 174 169 167 156 157 139 110 35 21 25 36 34 29 33 28 23 20 21 34
26 283 243 256 122 71 78 116 102 153 130 70 23 107 91 46 52 26 90 108 129 155 165 205 188 184 194 189 185 184 185 182 177 166 161 151 116 22 20 13 24 32 41 31 21 17 22 29 38
349 249 250 247 139 125 117 92 124 155 120 121 198 112 82 42 55 70 105 96 137 151 169 198 191 183 185 196 213 203 193 187 188 181 175 160 132 27 18 14 20 27 33 21 18 17 24 36 48
247 279 242 222 165 149 159 121 187 175 126 123 182 146 84 76 76 83 101 113 124 154 179 193 195 193 191 194 210 206 208 202 200 196 185 169 149 321 359 9 23 32 36 23 20 16 16 26 42
305 279 313 311 167 190 171 164 215 173 165 118 45 194 130 69 65 61 136 152 154 165 177 183 201 204 201 191 216 221 213 213 211 204 188 200 248 291 310 350 8 22 28 19 21 21 20 30 36
300 265 248 232 206 208 154 176 176 243 116 104 265 197 163 258 301 277 227 181 166 178 172 171 202 197 209 206 215 219 213 210 221 220 215 230 251 283 286 328 351 1 13 13 12 11 9 15 16
10 246 231 203 201 202 165 197 170 226 257 185 161 129 234 270 281 253 204 153 160 202 195 189 211 206 197 198 221 221 223 210 216 223 233 276 283 257 282 322 346 359 354 353 356 4 3 358 356
269 263 303 8 147 218 175 226 176 226 208 206 179 251 278 284 260 202 184 195 204 221 219 219 210 212 212 206 214 211 222 226 227 231 234 235 214 203 307 324 305 325 336 334 343 339 348 353 341
189 277 98 191 212 240 220 234 225 246 247 281 242 301 319 305 224 198 209 228 237 236 230 229 227 225 217 211 202 209 210 216 206 215 213 221 225 283 297 302 298 310 319 332 345 343 345 341 332
251 225 242 213 208 208 228 260 246 244 287 185 220 271 253 103 155 191 209 223 233 238 239 237 234 231 226 213 199 197 209 219 220 214 215 232 232 247 273 271 275 282 305 316 329 334 334 337 328
240 225 225 226 212 237 258 249 259 227 225 238 233 196 146 162 179 234 235 246 247 245 244 244 240 231 223 210 194 196 200 210 218 225 222 225 224 223 242 251 248 255 283 304 317 321 327 338 335
6 272 255 242 239 237 229 245 208 202 174 164 159 158 200 223 242 266 269 272 268 264 259 254 245 223 204 195 194 192 194 209 207 223 235 223 234 245 272 234 227 268 282 317 312 312 324 332 332
283 284 265 244 238 235 217 238 224 162 174 181 186 193 225 249 266 268 267 264 266 267 264 251 207 199 187 188 190 182 189 189 200 209 223 228 237 254 265 270 270 265 294 269 301 315 321 324 322
255 257 264 109 176 183 198 270 157 180 187 195 204 215 227 267 277 279 273 269 261 253 246 226 205 181 180 185 181 182 180 179 174 195 220 232 232 241 263 265 249 262 143 316 317 316 323 325 322
212 262 223 244 202 159 206 271 165 191 203 213 216 219 223 234 264 264 263 256 230 199 165 165 165 172 178 179 178 173 164 163 162 154 173 174 160 130 97 97 74 344 317 320 326 335 349 338 334
255 226 255 252 169 221 220 249 173 196 208 213 217 217 217 215 217 226 221 184 163 155 154 161 166 171 176 174 166 159 158 156 151 155 144 157 150 148 167 227 272 274 279 356 15 11 354 333 338
276 282 267 266 162 270 244 248 243 198 211 218 216 214 211 207 201 192 181 162 157 155 157 159 159 157 158 160 160 171 155 150 152 155 155 164 168 155 132 125 105 66 42 30 18 7 355 349 353
245 256 259 262 231 245 269 263 256 213 219 224 225 217 206 194 181 178 165 158 158 157 158 159 159 159 155 157 157 157 155 151 148 134 128 118 114 105 91 78 67 54 42 28 19 15 11 4 1
235 243 253 258 272 241 273 267 254 241 217 220 224 214 200 191 178 167 163 161 153 153 153 153 152 150 149 151 160 153 141 132 126 117 108 97 87 80 71 59 44 29 17 9 6 3 3 4 6
247 235 250 261 254 261 162 286 287 237 205 212 210 200 190 177 169 162 158 163 164 158 156 157 157 155 147 138 139 139 135 129 118 113 103 94 84 73 58 40 26 16 9 3 1 359 357 354 352
258 144 224 242 254 274 258 266 295 46 214 208 203 197 187 178 168 159 159 165 166 163 163 161 156 150 144 142 138 138 136 130 123 114 106 93 71 47 29 16 9 2 358 356 352 350 349 348 346
132 112 113 223 268 259 244 232 268 213 236 198 192 189 180 174 166 159 160 159 156 152 150 148 147 142 139 138 138 140 137 129 125 116 103 76 46 24 15 5 360 356 352 348 346 345 344 344 341
193 176 234 236 208 254 334 220 250 184 200 198 185 184 178 173 169 164 160 158 155 154 152 152 152 148 149 149 144 139 134 129 120 108 89 67 35 13 358 351 348 348 350 350 349 346 342 339 336
201 203 190 236 218 259 40 234 241 1 145 177 182 181 177 174 173 172 167 162 159 157 157 157 157 156 154 152 147 142 132 123 110 91 65 34 16 4 354 352 348 343 341 338 335 331 328 325 322
188 226 241 2 141 277 228 243 215 163 170 180 174 177 179 180 178 175 173 169 165 164 164 165 164 161 159 156 150 145 138 127 108 77 36 12 3 357 351 342 338 331 329 327 324 323 322 320 318
215 155 174 207 226 236 251 244 238 204 193 181 180 185 182 182 181 180 179 176 173 171 170 170 170 170 166 162 156 150 143 135 112 61 16 357 348 343 336 330 325 322 325 328 327 325 324 320 319
180 211 222 227 223 251 275 244 174 207 189 191 188 186 184 183 183 183 182 182 179 178 177 176 176 173 169 166 162 160 160 158 134 2 342 328 329 327 327 326 328 330 331 329 326 324 322 319 317
230 215 207 208 191 238 284 262 95 45 183 186 189 188 189 188 184 184 184 184 184 182 180 180 180 178 176 174 174 175 184 193 240 301 313 320 323 329 332 331 330 328 327 327 325 323 320 318 315
Wind_Speed_850mb
6 4 3 2 9 8 8 9 3 5 4 12 7 11 15 20 19 9 4 4 6 22 30 31 25 20 22 19 18 17 16 13 10 10 14 15 7 10 17 20 16 11 9 10 12 12 12 11 10
5 6 2 5 9 10 11 9 6 11 9 6 2 2 1 21 20 15 6 2 8 22 28 28 29 24 22 20 19 16 13 9 8 11 11 9 7 14 19 20 17 12 9 9 11 12 11 9 8
5 4 6 6 6 7 9 7 9 8 5 3 2 5 7 15 20 9 5 4 12 21 26 28 26 29 23 21 19 18 15 11 11 11 8 6 7 13 17 20 15 12 9 10 10 11 10 9 7
4 3 7 12 4 6 8 9 5 9 5 2 2 13 13 15 6 7 6 8 14 16 22 26 24 24 21 19 17 18 15 13 12 10 8 8 5 10 15 18 18 12 8 8 10 11 10 9 8
6 7 8 5 6 8 7 8 4 5 7 8 1 9 11 13 13 11 11 11 12 16 20 23 25 23 18 14 13 13 15 15 14 10 7 11 2 6 10 15 18 17 12 11 12 10 9 8 7
7 7 10 11 10 8 6 5 4 5 4 10 3 6 13 11 9 7 9 7 12 14 17 19 27 28 26 20 20 16 13 15 14 9 9 7 1 2 7 13 14 17 12 10 11 11 11 9 7
8 8 9 7 8 10 7 4 11 6 8 9 2 5 15 10 5 2 2 4 9 11 14 16 22 25 23 25 22 18 16 14 13 9 9 5 5 3 8 12 12 14 13 12 12 10 8 7 5
4 7 5 5 9 9 10 10 5 7 10 3 0 6 15 9 7 7 4 5 7 11 11 13 23 27 19 20 23 22 17 15 14 12 11 7 6 6 11 10 10 13 14 15 15 13 11 9 6
1 7 8 5 9 6 10 13 7 3 7 4 2 2 8 13 12 5 5 7 6 13 17 16 19 26 32 24 25 23 22 20 17 17 13 8 12 11 15 12 8 13 17 17 17 16 14 12 8
7 7 4 4 0 5 13 8 8 10 16 15 7 2 11 15 10 6 9 9 12 18 21 23 20 26 29 34 21 24 24 21 20 20 15 12 14 3 8 10 11 12 17 21 25 20 16 15 13
1 8 4 6 5 3 8 10 8 14 17 8 9 1 11 4 4 8 9 16 19 22 25 29 28 26 29 31 35 26 33 24 22 19 15 16 13 9 11 11 12 14 15 18 21 28 24 21 16
11 6 6 3 5 5 11 8 13 16 5 4 5 6 2 3 3 7 11 14 16 19 26 32 35 34 30 29 29 28 30 25 22 20 21 20 17 10 14 15 14 14 19 21 21 23 30 34 27
14 6 8 10 10 12 10 20 20 17 8 10 10 8 5 3 3 4 6 10 13 17 22 26 30 35 35 31 28 35 37 42 35 31 25 22 17 17 18 22 19 13 12 15 26 24 31 38 41
6 9 15 15 23 18 18 23 8 14 15 12 10 7 5 5 5 6 11 16 19 21 24 26 28 28 34 40 36 33 31 27 24 29 22 22 19 16 16 16 8 11 7 17 20 20 22 30 41
8 16 20 27 29 21 18 18 24 20 22 15 11 6 5 7 7 11 14 20 24 28 29 25 19 36 44 45 40 32 27 22 19 19 25 22 18 18 20 20 15 11 16 8 18 20 24 28 34
10 11 17 12 15 9 19 16 20 21 25 21 14 11 7 8 8 12 15 17 18 19 19 18 22 35 47 46 39 33 25 20 17 14 16 17 15 13 15 15 10 2 1 7 14 21 26 32 38
18 22 19 11 20 9 23 10 21 18 28 25 20 15 12 8 7 10 13 11 8 8 12 19 29 40 48 45 39 33 27 21 16 11 10 10 11 12 11 9 3 4 11 13 16 20 22 26 29
21 28 22 22 13 18 22 31 18 23 27 29 23 19 16 13 9 11 11 8 12 16 24 31 38 44 43 45 40 38 35 29 26 23 19 16 14 11 6 4 3 6 6 5 11 15 17 22 28
28 24 28 21 3 13 29 33 28 34 30 32 30 26 21 16 11 15 16 16 19 22 29 37 43 50 46 43 44 32 34 32 27 22 18 15 10 8 8 12 11 13 16 19 18 17 20 25 31
31 32 33 29 11 9 29 39 33 30 39 39 34 29 25 21 18 18 23 25 26 29 34 45 52 50 51 48 47 40 38 33 28 29 29 28 25 23 21 21 20 19 19 19 22 25 29 31 38
30 35 29 32 4 22 28 43 46 46 27 21 26 27 27 27 25 23 29 33 35 40 45 50 54 52 47 44 41 40 43 45 43 38 33 31 26 24 21 19 20 21 21 24 28 31 34 36 35
32 29 31 28 16 21 11 24 28 20 27 30 33 34 34 33 28 28 31 35 38 41 43 43 42 39 39 41 44 46 47 45 39 34 29 25 22 19 18 18 19 21 26 28 33 35 37 37 39
17 2 16 21 25 30 36 22 9 4 26 35 41 42 40 38 39 39 36 41 43 42 42 41 43 46 46 43 41 40 40 38 35 30 25 21 18 18 20 23 24 26 28 31 34 36 38 40 40
22 13 8 6 15 24 33 31 25 25 27 32 43 48 47 45 43 41 43 49 48 49 50 51 48 47 44 41 38 35 32 32 30 26 20 17 18 20 22 25 28 30 31 32 34 34 35 37 38
24 15 7 9 10 16 2 24 31 11 9 26 47 57 56 50 46 44 51 52 58 58 56 54 50 49 44 39 34 30 31 29 25 21 16 13 13 17 22 26 31 35 40 44 46 47 48 49 51
37 35 14 12 12 7 3 17 12 6 10 17 49 55 55 54 49 46 47 52 57 58 56 54 50 47 43 40 38 32 27 24 20 16 13 12 15 19 24 28 33 36 37 39 42 44 47 49 52
20 29 13 6 3 7 15 22 7 12 12 24 50 60 63 61 57 54 51 54 58 57 55 52 50 47 43 37 32 28 23 16 12 9 9 13 17 20 24 29 32 36 37 40 43 49 54 58 62
16 16 9 11 11 13 15 22 20 20 28 33 44 63 66 63 60 57 57 57 56 55 54 51 48 45 42 37 31 25 18 12 7 6 9 13 18 23 27 30 32 36 40 45 52 59 62 65 64
14 19 17 9 14 7 9 13 12 24 36 42 44 63 72 74 71 65 57 59 61 60 59 55 51 47 42 35 29 23 16 8 3 4 9 15 19 23 26 30 35 41 49 57 62 64 64 66 68
30 21 35 13 13 13 11 23 6 6 26 44 51 62 66 71 71 65 60 59 60 60 59 55 52 48 41 34 28 21 15 9 4 8 13 19 23 27 30 34 41 50 58 63 62 65 68 68 70
Wind_Direction_850mb
357 360 111 280 234 245 124 105 58 92 121 38 19 358 34 35 19 39 56 152 137 158 174 183 169 177 176 174 165 159 154 151 137 134 136 133 111 35 17 18 20 17 47 49 41 39 35 35 42
27 104 33 274 256 197 113 119 142 62 54 28 51 264 15 77 51 77 72 40 129 162 171 177 175 179 187 182 179 171 161 161 156 154 145 135 83 46 36 30 40 42 41 37 31 28 25 33 36
59 89 271 268 288 67 119 145 101 92 75 15 144 33 26 39 44 63 37 89 126 161 169 187 181 179 189 183 185 178 174 169 167 156 157 139 110 35 21 25 36 34 29 33 28 23 20 21 34
26 283 243 256 122 71 78 116 102 153 130 70 23 107 91 46 52 26 90 108 129 155 165 205 188 184 194 189 185 184 185 182 177 166 161 151 116 22 20 13 24 32 41 31 21 17 22 29 38
349 249 250 247 139 125 117 92 124 155 120 121 198 112 82 42 55 70 105 96 137 151 169 198 191 183 185 196 213 203 193 187 188 181 175 160 132 27 18 14 20 27 33 21 18 17 24 36 48
247 279 242 222 165 149 159 121 187 175 126 123 182 146 84 76 76 83 101 113 124 154 179 193 195 193 191 194 210 206 208 202 200 196 185 169 149 321 359 9 23 32 36 23 20 16 16 26 42
305 279 313 311 167 190 171 164 215 173 165 118 45 194 130 69 65 61 136 152 154 165 177 183 201 204 201 191 216 221 213 213 211 204 188 200 248 291 310 350 8 22 28 19 21 21 20 30 36
300 265 248 232 206 208 154 176 176 243 116 104 265 197 163 258 301 277 227 181 166 178 172 171 202 197 209 206 215 219 213 210 221 220 215 230 251 283 286 328 351 1 13 13 12 11 9 15 16
10 246 231 203 201 202 165 197 170 226 257 185 161 129 234 270 281 253 204 153 160 202 195 189 211 206 197 198 221 221 223 210 216 223 233 276 283 257 282 322 346 359 354 353 356 4 3 358 356
269 263 303 8 147 218 175 226 176 226 208 206 179 251 278 284 260 202 184 195 204 221 219 219 210 212 212 206 214 211 222 226 227 231 234 235 214 203 307 324 305 325 336 334 343 339 348 353 341
189 277 98 191 212 240 220 234 225 246 247 281 242 301 319 305 224 198 209 228 237 236 230 229 227 225 217 211 202 209 210 216 206 215 213 221 225 283 297 302 298 310 319 332 345 343 345 341 332
251 225 242 213 208 208 228 260 246 244 287 185 220 271 253 103 155 191 209 223 233 238 239 237 234 231 226 213 199 197 209 219 220 214 215 232 232 247 273 271 275 282 305 316 329 334 334 337 328
240 225 225 226 212 237 258 249 259 227 225 238 233 196 146 162 179 234 235 246 247 245 244 244 240 231 223 210 194 196 200 210 218 225 222 225 224 223 242 251 248 255 283 304 317 321 327 338 335
6 272 255 242 239 237 229 245 208 202 174 164 159 158 200 223 242 266 269 272 268 264 259 254 245 223 204 195 194 192 194 209 207 223 235 223 234 245 272 234 227 268 282 317 312 312 324 332 332
283 284 265 244 238 235 217 238 224 162 174 181 186 193 225 249 266 268 267 264 266 267 264 251 207 199 187 188 190 182 189 189 200 209 223 228 237 254 265 270 270 265 294 269 301 315 321 324 322
255 257 264 109 176 183 198 270 157 180 187 195 204 215 227 267 277 279 273 269 261 253 246 226 205 181 180 185 181 182 180 179 174 195 220 232 232 241 263 265 249 262 143 316 317 316 323 325 322
212 262 223 244 202 159 206 271 165 191 203 213 216 219 223 234 264 264 263 256 230 199 165 165 165 172 178 179 178 173 164 163 162 154 173 174 160 130 97 97 74 344 317 320 326 335 349 338 334
255 226 255 252 169 221 220 249 173 196 208 213 217 217 217 215 217 226 221 184 163 155 154 161 166 171 176 174 166 159 158 156 151 155 144 157 150 148 167 227 272 274 279 356 15 11 354 333 338
276 282 267 266 162 270 244 248 243 198 211 218 216 214 211 207 201 192 181 162 157 155 157 159 159 157 158 160 160 171 155 150 152 155 155 164 168 155 132 125 105 66 42 30 18 7 355 349 353
245 256 259 262 231 245 269 263 256 213 219 224 225 217 206 194 181 178 165 158 158 157 158 159 159 159 155 157 157 157 155 151 148 134 128 118 114 105 91 78 67 54 42 28 19 15 11 4 1
235 243 253 258 272 241 273 267 254 241 217 220 224 214 200 191 178 167 163 161 153 153 153 153 152 150 149 151 160 153 141 132 126 117 108 97 87 80 71 59 44 29 17 9 6 3 3 4 6
247 235 250 261 254 261 162 286 287 237 205 212 210 200 190 177 169 162 158 163 164 158 156 157 157 155 147 138 139 139 135 129 118 113 103 94 84 73 58 40 26 16 9 3 1 359 357 354 352
258 144 224 242 254 274 258 266 295 46 214 208 203 197 187 178 168 159 159 165 166 163 163 161 156 150 144 142 138 138 136 130 123 114 106 93 71 47 29 16 9 2 358 356 352 350 349 348 346
132 112 113 223 268 259 244 232 268 213 236 198 192 189 180 174 166 159 160 159 156 152 150 148 147 142 139 138 138 140 137 129 125 116 103 76 46 24 15 5 360 356 352 348 346 345 344 344 341
193 176 234 236 208 254 334 220 250 184 200 198 185 184 178 173 169 164 160 158 155 154 152 152 152 148 149 149 144 139 134 129 120 108 89 67 35 13 358 351 348 348 350 350 349 346 342 339 336
201 203 190 236 218 259 40 234 241 1 145 177 182 181 177 174 173 172 167 162 159 157 157 157 157 156 154 152 147 142 132 123 110 91 65 34 16 4 354 352 348 343 341 338 335 331 328 325 322
188 226 241 2 141 277 228 243 215 163 170 180 174 177 179 180 178 175 173 169 165 164 164 165 164 161 159 156 150 145 138 127 108 77 36 12 3 357 351 342 338 331 329 327 324 323 322 320 318
215 155 174 207 226 236 251 244 238 204 193 181 180 185 182 182 181 180 179 176 173 171 170 170 170 170 166 162 156 150 143 135 112 61 16 357 348 343 336 330 325 322 325 328 327 325 324 320 319
180 211 222 227 223 251 275 244 174 207 189 191 188 186 184 183 183 183 182 182 179 178 177 176 176 173 169 166 162 160 160 158 134 2 342 328 329 327 327 326 328 330 331 329 326 324 322 319 317
230 215 207 208 191 238 284 262 95 45 183 186 189 188 189 188 184 184 184 184 184 182 180 180 180 178 176 174 174 175 184 193 240 301 313 320 323 329 332 331 330 328 327 327 325 323 320 318 315